Location: Sweet Grass
(48.9965°N, 111.9649°W)
Time: 08:10:33
(UTC+00:00)

JY1SAT - Visible Passes

Search period start: 01 April 2023 00:00
Search period end: 11 April 2023 00:00
Orbit: 557 x 577 km, 97.6° (Epoch: 30 March)

Date Brightness Start Highest point End Pass type
(mag) Time Alt. Az. Time Alt. Az. Time Alt. Az.
01 Apr ? 03:54:01 31° ENE 03:54:03 31° ENE 03:57:37 10° N visible
01 Apr ? 05:30:04 24° WNW 05:30:04 24° WNW 05:32:35 10° NW visible
02 Apr ? 03:54:56 32° ENE 03:55:04 32° ENE 03:58:40 10° N visible
02 Apr ? 05:31:00 24° WNW 05:31:00 24° WNW 05:33:35 10° NW visible
03 Apr ? 03:55:51 32° ENE 03:56:04 33° ENE 03:59:41 10° N visible
03 Apr ? 05:31:55 24° WNW 05:31:55 24° WNW 05:34:34 10° NW visible
04 Apr ? 03:56:45 33° ENE 03:57:03 33° ENE 04:00:41 10° N visible
04 Apr ? 05:32:48 24° WNW 05:32:48 24° WNW 05:35:32 10° NW visible
05 Apr ? 03:57:37 33° E 03:58:00 34° ENE 04:01:41 10° N visible
05 Apr ? 05:33:41 24° W 05:33:41 24° W 05:36:30 10° NW visible
06 Apr ? 03:58:29 34° E 03:58:57 35° ENE 04:02:38 10° N visible
06 Apr ? 05:34:32 23° W 05:34:32 23° W 05:37:25 10° NW visible
07 Apr ? 03:59:19 34° E 03:59:53 36° ENE 04:03:35 10° N visible
07 Apr ? 05:35:23 23° W 05:35:23 23° W 05:38:19 10° NW visible
08 Apr ? 04:00:09 34° E 04:00:47 36° ENE 04:04:31 10° N visible
08 Apr ? 05:36:12 23° W 05:36:12 23° W 05:39:13 10° NW visible
09 Apr ? 04:00:57 34° E 04:01:40 37° ENE 04:05:25 10° N visible
09 Apr ? 05:37:00 22° W 05:37:00 22° W 05:40:05 10° NW visible
10 Apr ? 04:01:44 34° E 04:02:33 38° ENE 04:06:18 10° N visible
10 Apr ? 05:37:47 22° W 05:37:47 22° W 05:40:56 10° NW visible
